Regional Weather Roundup
Issued by NWS

Home | Current Version | Previous Version | Graphics & Text | Print | Product List | Glossary On
Versions: 1 2 3 4 5 6 7 8 9 10 11 12 13 14 15 16 17 18 19 20 21 22 23 24 25 26 27 28 29 30 31 32 33 34 35 36 37 38 39 40 41 42 43 44 45 46 47 48 49 50
000
ASUS43 KLOT 251104
RWRIL

ILLINOIS REGIONAL WEATHER ROUNDUP
NATIONAL WEATHER SERVICE CHICAGO/ROMEOVILLE IL
600 AM CDT THU AUG 25 2016

NOTE: "FAIR" INDICATES FEW OR NO CLOUDS BELOW 12,000 FEET WITH NO
SIGNIFICANT WEATHER AND/OR OBSTRUCTIONS TO VISIBILITY.

* THESE STATIONS ARE NOT UNDER NWS QUALITY CONTROL. THEY ALSO MAY NOT
  REPORT WEATHER SUCH AS PRECIPITATION OR FOG.

ILZ001-002-007-009-015-016-024-251200-
NORTHWEST ILLINOIS

CITY           SKY/WX    TMP DP  RH WIND       PRES   REMARKS
MOLINE         CLOUDY    72  70  93 W7        30.00R
SAVANNA*       CLOUDY    70  67  89 N5        30.00R
$$

ILZ003-004-008-010-011-017-018-251200-
NORTH CENTRAL ILLINOIS

CITY           SKY/WX    TMP DP  RH WIND       PRES   REMARKS
ROCKFORD       LGT RAIN  69  67  93 N7        29.99R
FREEPORT*      RAIN      67  65  96 N5        30.02R
ROCHELLE*      CLOUDY    70  70  98 NW9       29.99R
$$

ILZ005-006-012>014-019>023-251200-
NORTHEAST ILLINOIS

CITY           SKY/WX    TMP DP  RH WIND       PRES   REMARKS
CHICAGO-OHARE  CLOUDY    71  69  93 S5        29.95S
CHICAGO-MIDWAY LGT RAIN  73  69  87 SW7       29.96S
AURORA         CLOUDY    71  69  93 SW6       29.98R
LANSING*       CLOUDY    69  66  91 SE3       29.96F
JOLIET*        CLOUDY    72  71  97 SW3       29.99R
WAUKEGAN       LGT RAIN  70  68  93 CALM      29.96R
DUPAGE AIRPORT CLOUDY    70  67  90 S6        29.96R
KANKAKEE*      MOCLDY    70  69  98 W3        30.00R
WHEELING       CLOUDY    72  69  90 CALM      29.96S
MORRIS*        CLOUDY    71  69  95 CALM      29.97R
ROMEOVILLE*    CLOUDY    70  69  95 SW3       29.99R
NORTHERLY ISL    N/A     73  68  84 S2          N/A
$$

LMZ740>746-251200-
SOUTHERN LAKE MICHIGAN

STATION/POSITION SKY/WX   TEMP    WIND        PRES    VSBY  WAVE
                          AIR SEA DIR/SP/G                  HT/PER
                          (F)     (DEG/KT/KT) (MB)    (MI)  (FT/S)
SOUTHERN BUOY              72 74  320/ 10/ 12 1013.5          1/ 3
WILMETTE HARBOR            71 69  230/  6/  8   N/A           0
HARRISON CRIB              74     210/ 17/ 21   N/A
BURNHAM HARBOR             73     180/  6/ 11   N/A
CALUMET HARBOR             72     200/  8/ 11 1014.3F
BURNS HARBOR               72     210/ 11/ 19 1015.6F
MICHIGAN CITY              72     180/ 14/ 16   N/A
MICHIGAN CITY 6N           73 74  230/ 16/ 19   N/A           2/ 3
ST. JOSEPH                 74 74  220/ 12/ 17 1014.8R         2/ 3
$$

ILZ025>027-034>036-040-047-049-050-058-095>099-251200-
WEST-CENTRAL ILLINOIS

CITY           SKY/WX    TMP DP  RH WIND       PRES   REMARKS
QUINCY         CLOUDY    68  68 100 S5        30.03S
GALESBURG*     CLEAR     68  68  98 SW6       30.02R
MACOMB*        CLOUDY    71  71 100 W5        30.04F
JACKSONVILLE*  PTCLDY    68  67  96 SW3       30.04S
PITTSFIELD*    CLOUDY    69  69  98 CALM      30.05R
$$

ILZ028>032-037-038-041>044-048-051>054-059>061-251200-
CENTRAL ILLINOIS

CITY           SKY/WX    TMP DP  RH WIND       PRES   REMARKS
PONTIAC        CLOUDY    71  70  99 SW6       30.01R
BLOOMINGTON    CLOUDY    67  67 100 SW6       30.04R
DECATUR        CLEAR     68  66  93 SW5       30.04R
PEORIA         CLOUDY    70  70 100 W8        30.02R FOG
LACON*         CLOUDY    71  70  97 SW3       29.99R
LINCOLN*       CLEAR     68  68 100 CALM      30.02S
SPRINGFIELD    CLEAR     68  67  96 SW5       30.04R
TAYLORVILLE    CLEAR     66  66  99 CALM      30.04R
$$

ILZ033-039-045-046-055>057-062-063-251200-
EAST-CENTRAL ILLINOIS

CITY           SKY/WX    TMP DP  RH WIND       PRES   REMARKS
CHAMPAIGN      CLOUDY    67  66  97 S5        30.03R
RANTOUL*       PTCLDY    69  69  99 SW6       30.01R
MATTOON        PTCLDY    69  67  93 S3        30.04R
PARIS*         MOCLDY    67  67 100 CALM      30.04F
$$

ILZ079-100>102-251200-
SOUTHWEST ILLINOIS

CITY           SKY/WX    TMP DP  RH WIND       PRES   REMARKS
ALTON          CLEAR     68  67  97 CALM      30.06S
BELLEVILLE     CLEAR     72  72 100 S2        30.05R
CAHOKIA*       CLEAR     73  70  90 S3        30.05S
SPARTA*        CLEAR     72  71  97 CALM      30.08S
$$

ILZ064>066-069>071-074>076-080>082-084>086-088>090-092>094-251200-
SOUTH-CENTRAL ILLINOIS

CITY           SKY/WX    TMP DP  RH WIND       PRES   REMARKS
CARBONDALE     CLEAR     70  69  97 CALM      30.07S FOG
EFFINGHAM*     CLEAR     73  73 100 SW3       30.06S FOG
MARION         CLEAR     73  73 100 SW3       30.09R FOG
MT. VERNON     CLEAR     72  66  83 SW5       30.08R
CENTRALIA*     CLEAR     74  74  99 CALM      30.06R
SALEM*         CLEAR     74  72  93 CALM      30.06S FOG
$$

ILZ067-068-072-073-078-083-087-091-251200-
SOUTHEAST ILLINOIS

CITY           SKY/WX    TMP DP  RH WIND       PRES   REMARKS
LAWRENCEVILLE  PTCLDY    74  74 100 SW6       30.05F
FLORA*         PTCLDY    75  74  97 SW3       30.06R FOG
FAIRFIELD*     CLEAR     74  74 100 CALM      30.06S FOG
HARRISBURG*    CLEAR     72  72 100 CALM      30.09R FOG
ROBINSON*      CLEAR     74  73  98 SW5       30.05S
CARMI*         CLEAR     72  72 100 S5        30.07S FOG
$$

ABBREVIATIONS USED IN REMARKS
   TC - TEMPERATURE IN CELSIUS
  WCI - WIND CHILL INDEX
   HX - HEAT INDEX
  VSB - VISIBILITY
$$




USA.gov is the U.S. government's official web portal to all federal, state and local government web resources and services.